Meteo Giornale » Osservazioni meteo Gran Bretagna » Londra City AP

ore: 08:50 - Osservazioni Meteo Londra City AP
Lat. 51° 30' N Lon. 0° 30' W Alt. 5 metri s.l.m.

coperto Europe/London

9 °C

Coperto

Temp. 24 Ore

6 °C

10 °C

Sud/Sud-Ovest

24 Km/h

Dew point 6 °C

Umidità 81 %

Visibilità  10 Km

Il sole sorge alle ore 06:52

Il sole tramonta alle ore 17:37

Data e Ora Cielo e Fenomeni T °C DP °C Um. % Pres. hPa Vis. km Vento km/h
Oggi h: 08:50 coperto Coperto 9 6 81 1014 10 S/SO 24
Oggi h: 08:20 coperto Coperto 9 6 81 1014 10 S/SO 25.9
Oggi h: 07:50 coperto_pioggia Pioggia Debole 9 6 81 1015 6 SO 24
Oggi h: 06:20 molto_nuvoloso Molto Nuvoloso 9 6 81 1015 10 S/SO 18.5
Oggi h: 05:50 nuvoloso Nuvoloso 8 6 87 1015 10 SO 20.3
Oggi h: 05:20 coperto_pioggia Pioggia Debole 8 6 87 1015 10 SO 18.5
Oggi h: 04:50 sereno Sereno 8 5 81 1016 10 S/SO 14.8
Oggi h: 04:20 coperto_pioggia Pioggia Debole 8 5 81 1016 10 S/SO 13
Oggi h: 03:20 sereno Sereno 8 5 81 1016 10 SO 14.8
Oggi h: 02:50 sereno Sereno 8 5 81 1017 10 SO 16.7
Oggi h: 02:20 sereno Sereno 7 4 81 1017 10 SO 16.7
Oggi h: 01:50 sereno Sereno 7 3 75 1017 10 S/SO 18.5
Oggi h: 01:20 sereno Sereno 7 2 70 1018 10 SO 14.8
Oggi h: 00:50 sereno Sereno 7 1 65 1018 10 SO 14.8
Oggi h: 00:20 sereno Sereno 7 -0 60 1018 10 SO 13
Ieri h: 23:50 sereno Sereno 7 -1 56 1019 10 S/SO 11.1
Ieri h: 23:20 sereno Sereno 6 -1 60 1019 10 SO 9.3
Ieri h: 22:20 sereno Sereno 6 -1 60 1019 10 O/SO 9.3
Ieri h: 21:50 sereno Sereno 7 -1 56 1019 10 SO 11.1
Ieri h: 21:20 sereno Sereno 7 -1 56 1019 10 SO 11.1
Ieri h: 20:50 sereno Sereno 7 -1 56 1019 10 SO 11.1
Ieri h: 20:20 sereno Sereno 7 -1 56 1019 10 S/SO 13
Ieri h: 19:50 sereno Sereno 8 -1 52 1019 10 S/SO 13
Ieri h: 19:20 sereno Sereno 8 -1 52 1019 10 O/SO 11.1
Ieri h: 18:50 sereno Sereno 8 -1 52 1019 10 O/SO 13
Ieri h: 18:20 sereno Sereno 9 -1 49 1019 10 O/SO 9.3
Ieri h: 17:50 sereno Sereno 9 -1 49 1019 10 O/NO 9.3
Ieri h: 17:20 sereno Sereno 9 -1 49 1019 10 O/NO 14.8
Ieri h: 16:50 nuvoloso Nuvoloso 9 -1 49 1018 10 NO 13
Ieri h: 16:20 molto_nuvoloso Molto Nuvoloso 10 -1 46 1018 10 O 14.8
Ieri h: 15:50 molto_nuvoloso Molto Nuvoloso 10 -1 46 1018 10 O 18.5
Ieri h: 15:20 nuvoloso Nuvoloso 9 -1 49 1018 10 O/NO 14.8
Ieri h: 14:50 sereno Sereno 9 -0 53 1018 10 O/NO 16.7
Ieri h: 14:20 nuvoloso Nuvoloso 9 -1 49 1017 10 NO 16.7
Ieri h: 13:50 molto_nuvoloso Molto Nuvoloso 10 -0 49 1018 10 O/NO 14.8
Ieri h: 13:20 poco_nuvoloso Poco Nuvoloso 8 -0 56 1018 10 O/NO 18.5
Ieri h: 12:20 nuvoloso Nuvoloso 8 0 56 1017 10 O/NO 20.3
Ieri h: 11:50 nuvoloso Nuvoloso 8 0 56 1017 10 N 14.8
Ieri h: 11:20 nuvoloso Nuvoloso 8 0 56 1017 10 NO 20.3
Ieri h: 10:50 poco_nuvoloso Poco Nuvoloso 7 -0 60 1017 10 O/NO 18.5
Ieri h: 10:20 nuvoloso Nuvoloso 7 0 60 1016 10 O/NO 25.9
Ieri h: 09:50 sereno Sereno 7 1 65 1016 10 O/NO 25.9
Ieri h: 09:20 sereno Sereno 6 1 70 1016 10 O/NO 24
Ieri h: 08:50 sereno Sereno 6 0 65 1015 10 O/NO 22.2